Home   Weather   Delphi   Past weeks
Flag for USA

Past Weather in Delphi, Indiana, USA — February 2017

Now
33 °F

Overcast.


Feels Like: 27 °F
Forecast: 33 / 29 °F
Wind: 7 mph from Northwest

Location: Purdue University Airport

Current Time: Jan 28, 2020 at 2:42:41 pm

Latest Report: Jan 28, 2020 at 1:54 pm


Visibility: 10 mi

Pressure: 30.09 "Hg

Humidity: 85%

Dew Point: 29 °F

Location of DelphiLocation

February 2017 Weather in Delphi — Graph

°F

High & Low Weather Summary for February 2017

 TemperatureHumidityPressure
High67 °F (Feb 20, 2:54 pm)100% (Feb 6, 5:54 pm)30.53 "Hg (Feb 6, 5:54 pm)
Low7 °F (Feb 9, 9:54 pm)31% (Feb 26, 3:54 pm)29.37 "Hg (Feb 7, 1:54 pm)
Average41 °F76%29.95 "Hg
* Reported Feb 1 12:54 am — Feb 28 11:54 pm, Delphi. Weather by CustomWeather, © 2020

Note: Actual official high and low records may vary slightly from our data, if they occured in-between our weather recording intervals... More about our weather records

Delphi Weather History for February 1, 2017

Scroll right to see more
 ConditionsComfort  
Time TempWeatherWind HumidityBarometerVisibility
12:54 am
Wed, Feb 1
36 °FOvercast.7 mph82%30.00 "Hg10 mi
1:54 am36 °FOvercast.7 mph82%29.99 "Hg10 mi
2:54 am36 °FOvercast.9 mph82%30.00 "Hg10 mi
3:54 am36 °FOvercast.8 mph82%30.01 "Hg10 mi
4:54 am36 °FMostly cloudy.9 mph75%30.00 "Hg10 mi
5:54 am35 °FOvercast.7 mph75%30.00 "Hg10 mi
6:54 am34 °FOvercast.5 mph79%30.03 "Hg10 mi
7:54 am33 °FPassing clouds.5 mph85%30.05 "Hg10 mi
8:54 am33 °FSunny.5 mph85%30.07 "Hg10 mi
9:54 am34 °FSunny.8 mph85%30.08 "Hg10 mi
10:54 am36 °FSunny.7 mph82%30.09 "Hg10 mi
11:54 am37 °FPartly sunny.10 mph73%30.09 "Hg10 mi
12:05 pm37 °FScattered clouds.8 mph73%30.08 "Hg10 mi
12:54 pm38 °FPartly sunny.7 mph73%30.10 "Hg10 mi
1:54 pm38 °FPartly sunny.10 mph70%30.09 "Hg10 mi
2:54 pm39 °FPartly sunny.9 mph67%30.09 "Hg10 mi
3:54 pm38 °FPartly sunny.14 mph68%30.11 "Hg10 mi
4:54 pm38 °FScattered clouds.15 mph60%30.12 "Hg10 mi
5:54 pm35 °FPartly sunny.10 mph64%30.16 "Hg10 mi
6:54 pm31 °FPassing clouds.8 mph69%30.18 "Hg10 mi
7:54 pm30 °FPassing clouds.7 mph72%30.19 "Hg10 mi
8:54 pm31 °FPassing clouds.9 mph76%30.21 "Hg10 mi
9:54 pm32 °FOvercast.12 mph66%30.21 "Hg10 mi
10:54 pm31 °FPassing clouds.15 mph59%30.22 "Hg10 mi
11:54 pm29 °FPassing clouds.14 mph61%30.24 "Hg10 mi
Weather by CustomWeather, © 2020

See weather overview

Advertising